Location: Newark
(40.9833°N, 0.0333°W)
Time: 19:58:20
(UTC+00:00)

Vanguard 2 Rocket - Pass Details

Date: 30 October 2020
Orbit: 553 x 3326 km, 32.9° (Epoch: 29 November)

Event Time Altitude Azimuth Distance (km) Brightness Sun altitude
Rises 20:52:55 0° 260° (W) 2,860 10.1 -44.3°
Enters shadow 20:53:11 - 259° (W) 2,764 9.9 -44.3°
Reaches altitude 10° 20:55:09 10° 247° (WSW) 2,097 - -44.7°
Maximum altitude 20:59:13 28° 188° (S) 1,515 - -45.4°
Drops below altitude 10° 21:05:04 10° 131° (SE) 3,081 - -46.4°
Sets 21:09:06 0° 122° (ESE) 4,525 - -47.0°
